Home   Weather   Montreux   Past weeks
Flag for Switzerland

Past Weather in Montreux, Vaud, Switzerland — Yesterday and Last 2 Weeks

Now
66 °F

Light rain. Overcast.


Feels Like: 66 °F
Forecast: 77 / 61 °F
Wind: 5 mph from South

Location: Aigle

Current Time: Jul 21, 2019 at 6:42:44 am

Latest Report: Jul 21, 2019 at 5:00 am


Visibility: 9 mi

Pressure: 30.14 "Hg

Humidity: 87%

Dew Point: 62 °F

Location of MontreuxLocation

Past Weather in Montreux — Graph

°F

Montreux Temperature Yesterday

Maximum temperature yesterday: 85 °F (at 5:00 pm)
Minimum temperature yesterday: 57 °F (at 4:00 am)
Average temperature yesterday: 73 °F

High & Low Weather Summary for the Past Weeks

 TemperatureHumidityPressure
High85 °F (Jul 20, 5:00 pm)97% (Jul 13, 6:00 am)30.14 "Hg (Jul 13, 6:00 am)
Low52 °F (Jul 14, 6:00 am)26% (Jul 18, 5:00 pm)29.79 "Hg (Jul 14, 6:00 pm)
Average69 °F64%29.94 "Hg
* Reported Jul 6 5:00 am — Jul 21 5:00 am, Montreux. Weather by CustomWeather, © 2019

Note: Actual official high and low records may vary slightly from our data, if they occured in-between our weather recording intervals... More about our weather records

Advertising

Montreux Weather History for the Previous 24 Hours

Scroll right to see more
 ConditionsComfort  
Time TempWeatherWind HumidityBarometerVisibility
5:00 am
Sun, Jul 21
66 °FLight rain. Overcast.5 mph87%30.14 "Hg9 mi
4:00 am68 °FMild.9 mph79%30.14 "HgN/A
3:00 am67 °FMild.8 mph82%30.14 "HgN/A
2:00 am69 °FMild.7 mph71%30.10 "HgN/A
1:00 am65 °FMild.2 mph85%30.07 "HgN/A
12:00 am67 °FMild.2 mph75%30.05 "HgN/A
11:00 pm
Sat, Jul 20
68 °FMild.1 mph77%30.03 "HgN/A
10:00 pm71 °FMild.2 mph66%30.01 "HgN/A
9:00 pm71 °FMild.2 mph71%30.00 "HgN/A
8:00 pm78 °FOvercast.2 mph48%29.97 "Hg22 mi
7:00 pm83 °FPleasantly warm.3 mph37%29.95 "HgN/A
6:00 pm84 °FPleasantly warm.8 mph36%29.94 "HgN/A
5:00 pm85 °FOvercast.8 mph33%29.95 "Hg19 mi
4:00 pm84 °FPleasantly warm.8 mph36%29.95 "HgN/A
3:00 pm84 °FPleasantly warm.12 mph37%29.95 "HgN/A
2:00 pm84 °FPartly sunny.10 mph40%29.96 "Hg17 mi
1:00 pm80 °FWarm.9 mph43%29.97 "HgN/A
12:00 pm80 °FWarm.8 mph41%29.98 "HgN/A
11:00 am77 °FPartly sunny.9 mph52%29.98 "Hg17 mi
10:00 am76 °FMild.7 mph54%29.98 "HgN/A
9:00 am74 °FMild.1 mph56%29.98 "HgN/A
8:00 am69 °FPartly sunny.3 mph69%29.99 "Hg17 mi
7:00 am63 °FMild.2 mph71%29.99 "HgN/A
6:00 am60 °FCool.3 mph78%29.98 "HgN/A
Weather by CustomWeather, © 2019

See weather overview